Weather History for Glasgow, KY

Change the Weather History Date:

Tuesday, February 25, 2014

  Actual Average Record
Temperature  
Mean Temperature 36 °F -  
Max Temperature 44 °F 50 °F 70 °F (1981)
Min Temperature 27 °F 30 °F -1 °F (1967)
Degree Days  
Heating Degree Days 29    
Moisture  
Dew Point 17 °F    
Average Humidity 49    
Maximum Humidity 71    
Minimum Humidity 34    
Precipitation  
Precipitation 0.00 in - - ()
Sea Level Pressure  
Sea Level Pressure 30.14 in    
Wind  
Wind Speed 5 mph (North)    
Max Wind Speed 10 mph    
Max Gust Speed -    
Visibility 10 miles    
Events      
Averages and records for this station are not official NWS values.
T = Trace of Precipitation, MM = Missing Value Source: NWS Daily Summary

Daily Weather History Graph

Daily Weather History Graph

Search for Another Location

Airport:

Trip Planner

Search our weather history database for the weather conditions in past years. The results will help you decide how hot, cold, wet, or windy it might be!

Date:

Astronomy

Feb. 25, 2014 Rise Set
Actual Time 6:20 AM CST 5:34 PM CST
Civil Twilight 5:53 AM CST 6:00 PM CST
Nautical Twilight 5:23 AM CST 6:30 PM CST
Astronomical Twilight 4:53 AM CST 7:00 PM CST
Moon 3:10 AM CST (2/25) 1:42 PM CST (2/25)
Length of Visible Light 12h 06m
Length of Day
11h 14m
Waning Crescent, 18% of the Moon is Illuminated
Feb 25
Waning Crescent
Mar 1
New
Mar 8
First Quarter
Mar 16
Full
Mar 23
Last Quarter

Hourly Weather History & Observations

Time (CST) Temp. Windchill Dew Point Humidity Pressure Visibility Wind Dir Wind Speed Gust Speed Precip Events Conditions
12:15 AM 32.2 °F 25.8 °F 15.4 °F 50% 30.16 in 10.0 mi North 6.9 mph - N/A   Overcast
12:35 AM 32.4 °F 26.9 °F 14.5 °F 48% 30.16 in 10.0 mi NNE 5.8 mph - N/A   Overcast
12:55 AM 32.2 °F 28.9 °F 14.5 °F 48% 30.16 in 10.0 mi NNE 3.5 mph - N/A   Overcast
1:15 AM 32.0 °F 28.7 °F 15.1 °F 50% 30.16 in 10.0 mi NNE 3.5 mph - N/A   Overcast
1:30 AM 32.0 °F - 14.9 °F 49% 30.16 in 10.0 mi Calm Calm - N/A   Overcast
1:55 AM 32.0 °F - 15.6 °F 51% 30.14 in 10.0 mi Calm Calm - N/A   Overcast
2:15 AM 32.0 °F - 15.6 °F 51% 30.13 in 10.0 mi Calm Calm - N/A   Overcast
3:55 AM 31.8 °F - 15.1 °F 50% 30.13 in 10.0 mi Calm Calm - N/A   Overcast
4:15 AM 31.8 °F 26.2 °F 15.1 °F 50% 30.14 in 10.0 mi North 5.8 mph - N/A   Overcast
4:30 AM 31.8 °F 24.6 °F 15.4 °F 51% 30.16 in 10.0 mi North 8.1 mph - N/A   Overcast
4:55 AM 31.8 °F 26.2 °F 15.3 °F 50% 30.16 in 10.0 mi NNE 5.8 mph - N/A   Overcast
5:15 AM 31.6 °F 28.3 °F 15.4 °F 51% 30.16 in 10.0 mi NNE 3.5 mph - N/A   Overcast
5:35 AM 31.5 °F 28.1 °F 15.4 °F 52% 30.16 in 10.0 mi NE 3.5 mph - N/A   Overcast
5:55 AM 31.1 °F 27.7 °F 15.8 °F 53% 30.15 in 10.0 mi NE 3.5 mph - N/A   Overcast
6:15 AM 31.1 °F 25.4 °F 16.0 °F 54% 30.16 in 10.0 mi NE 5.8 mph - N/A   Overcast
6:35 AM 31.1 °F - 16.2 °F 54% 30.17 in 10.0 mi Calm Calm - N/A   Overcast
6:55 AM 31.1 °F 26.4 °F 16.7 °F 55% 30.18 in 10.0 mi NNE 4.6 mph - N/A   Overcast
7:15 AM 31.1 °F 24.5 °F 16.3 °F 54% 30.19 in 10.0 mi NNE 6.9 mph - N/A   Overcast
7:35 AM 31.3 °F 24.7 °F 16.2 °F 54% 30.20 in 10.0 mi NE 6.9 mph - N/A   Overcast
7:55 AM 31.8 °F 26.2 °F 15.4 °F 51% 30.20 in 10.0 mi NNE 5.8 mph - N/A   Overcast
8:15 AM 32.0 °F 26.4 °F 15.3 °F 50% 30.20 in 10.0 mi NE 5.8 mph - N/A   Overcast
8:35 AM 32.4 °F 26.9 °F 15.6 °F 50% 30.21 in 10.0 mi ENE 5.8 mph - N/A   Overcast
8:55 AM 32.9 °F 26.7 °F 15.8 °F 49% 30.21 in 10.0 mi NNE 6.9 mph - N/A   Overcast
9:15 AM 33.1 °F 27.7 °F 15.8 °F 49% 30.21 in 10.0 mi NE 5.8 mph - N/A   Overcast
9:35 AM 33.8 °F 28.6 °F 16.2 °F 49% 30.21 in 10.0 mi NNE 5.8 mph - N/A   Overcast
9:55 AM 34.9 °F 30.8 °F 16.2 °F 46% 30.21 in 10.0 mi ENE 4.6 mph - N/A   Mostly Cloudy
10:15 AM 36.0 °F 31.1 °F 16.5 °F 45% 30.20 in 10.0 mi NE 5.8 mph - N/A   Scattered Clouds
10:35 AM 37.0 °F 33.3 °F 16.9 °F 44% 30.20 in 10.0 mi NE 4.6 mph - N/A   Clear
11:15 AM 39.0 °F - 16.5 °F 40% 30.19 in 10.0 mi Calm Calm - N/A   Clear
11:35 AM 39.4 °F - 15.4 °F 38% 30.19 in 10.0 mi Calm Calm - N/A   Clear
11:55 AM 39.9 °F 36.7 °F 15.3 °F 37% 30.18 in 10.0 mi NE 4.6 mph - N/A   Clear
12:15 PM 41.2 °F 38.2 °F 14.7 °F 34% 30.16 in 10.0 mi ENE 4.6 mph - N/A   Clear
12:35 PM 41.9 °F 38.2 °F 15.6 °F 35% 30.15 in 10.0 mi NNW 5.8 mph - N/A   Clear
12:55 PM 41.7 °F 37.3 °F 16.5 °F 36% 30.13 in 10.0 mi East 6.9 mph - N/A   Clear
1:15 PM 41.7 °F - 15.6 °F 35% 30.12 in 10.0 mi Calm Calm - N/A   Clear
1:35 PM 42.3 °F - 16.2 °F 35% 30.11 in 10.0 mi Calm Calm - N/A   Clear
1:55 PM 43.0 °F 40.3 °F 16.0 °F 34% 30.10 in 10.0 mi West 4.6 mph - N/A   Clear
2:15 PM 43.5 °F 40.1 °F 16.5 °F 34% 30.09 in 10.0 mi East 5.8 mph - N/A   Clear
2:35 PM 43.9 °F - 16.9 °F 34% 30.09 in 10.0 mi Calm Calm - N/A   Clear
2:55 PM 43.9 °F 39.3 °F 17.4 °F 35% 30.09 in 10.0 mi WSW 8.1 mph - N/A   Clear
3:15 PM 44.2 °F 39.7 °F 17.1 °F 34% 30.09 in 10.0 mi West 8.1 mph - N/A   Clear
3:35 PM 43.9 °F 39.9 °F 16.9 °F 34% 30.09 in 10.0 mi WNW 6.9 mph - N/A   Clear
3:55 PM 43.3 °F 39.2 °F 17.2 °F 35% 30.09 in 10.0 mi West 6.9 mph - N/A   Clear
4:15 PM 42.3 °F 37.9 °F 17.2 °F 37% 30.10 in 10.0 mi WNW 6.9 mph - N/A   Clear
4:35 PM 41.7 °F 37.3 °F 16.7 °F 36% 30.09 in 10.0 mi NW 6.9 mph - N/A   Clear
4:55 PM 40.5 °F 34.6 °F 16.7 °F 38% 30.10 in 10.0 mi North 9.2 mph - N/A   Clear
5:15 PM 39.2 °F 32.5 °F 17.1 °F 41% 30.10 in 10.0 mi North 10.4 mph - N/A   Clear
5:35 PM 38.7 °F 33.6 °F 16.9 °F 41% 30.09 in 10.0 mi NNW 6.9 mph - N/A   Scattered Clouds
5:55 PM 37.9 °F 33.5 °F 17.4 °F 43% 30.10 in 10.0 mi NNW 5.8 mph - N/A   Scattered Clouds
6:15 PM 37.4 °F 30.8 °F 18.1 °F 46% 30.11 in 10.0 mi NNW 9.2 mph - N/A   Scattered Clouds
6:35 PM 36.3 °F 30.8 °F 19.6 °F 51% 30.12 in 10.0 mi NNW 6.9 mph - N/A   Scattered Clouds
6:55 PM 35.4 °F 27.8 °F 20.3 °F 54% 30.13 in 10.0 mi NNW 10.4 mph - N/A   Clear
7:15 PM 34.3 °F 27.0 °F 20.5 °F 57% 30.13 in 10.0 mi NNW 9.2 mph - N/A   Clear
7:35 PM 33.6 °F 25.6 °F 20.5 °F 59% 30.13 in 10.0 mi North 10.4 mph - N/A   Clear
7:55 PM 33.1 °F 26.1 °F 20.7 °F 60% 30.13 in 10.0 mi North 8.1 mph - N/A   Clear
8:15 PM 32.7 °F 25.7 °F 20.3 °F 60% 30.13 in 10.0 mi NNW 8.1 mph - N/A   Clear
8:35 PM 32.2 °F 25.8 °F 20.3 °F 62% 30.12 in 10.0 mi NNW 6.9 mph - N/A   Clear
8:55 PM 31.8 °F 24.6 °F 20.5 °F 63% 30.12 in 10.0 mi North 8.1 mph - N/A   Clear
9:15 PM 31.3 °F 23.3 °F 20.7 °F 65% 30.12 in 10.0 mi North 9.2 mph - N/A   Clear
9:35 PM 30.9 °F 22.8 °F 20.7 °F 66% 30.12 in 10.0 mi North 9.2 mph - N/A   Scattered Clouds
9:55 PM 30.4 °F 23.6 °F 20.3 °F 66% 30.12 in 10.0 mi NNW 6.9 mph - N/A   Mostly Cloudy
10:15 PM 30.2 °F 22.6 °F 20.1 °F 66% 30.12 in 10.0 mi NNW 8.1 mph - N/A   Mostly Cloudy
10:35 PM 29.8 °F 23.9 °F 19.4 °F 65% 30.12 in 10.0 mi North 5.8 mph - N/A   Scattered Clouds
10:55 PM 29.5 °F 20.4 °F 19.2 °F 66% 30.12 in 10.0 mi North 10.4 mph - N/A   Clear
11:15 PM 28.8 °F 22.6 °F 19.0 °F 67% 30.11 in 10.0 mi NNW 5.8 mph - N/A   Clear
11:35 PM 28.0 °F 22.8 °F 18.9 °F 68% 30.12 in 10.0 mi NNW 4.6 mph - N/A   Clear
11:55 PM 27.5 °F 23.6 °F 19.0 °F 71% 30.12 in 10.0 mi NNW 3.5 mph - N/A   Clear